Regional Weather Roundup
Issued by NWS

Home | Current Version | Previous Version | Graphics & Text | Print | Product List | Glossary On
Versions: 1 2 3 4 5 6 7 8 9 10 11 12 13 14 15 16 17 18 19 20 21 22 23 24 25 26 27 28 29 30 31 32 33 34 35 36 37 38 39 40 41 42 43 44 45 46 47 48 49 50
000
ASUS43 KOAX 281210
RWRNE

WEATHER ROUNDUP FOR NEBRASKA
NATIONAL WEATHER SERVICE OMAHA NE
700 AM CDT THU APR 28 2016

NOTES: SATELLITE DATA IS BEING USED TO AUGMENT CLOUD COVER ABOVE
       12000 FEET.
       "FAIR" INDICATES FEW OR NO CLOUDS BELOW 12,000 FEET WITH NO
       SIGNIFICANT WEATHER AND/OR OBSTRUCTIONS TO VISIBILITY.

  * THESE STATIONS DO NOT REPORT WEATHER SUCH AS RAIN...SNOW OR FOG.

NEZ001>004-019>022-054>056-281300-
NEBRASKA PANHANDLE

CITY           SKY/WX    TMP DP  RH WIND       PRES   REMARKS
SCOTTSBLUFF    MOCLDY    32  28  85 CALM      29.98R
6HR MIN TEMP:  30; 6HR MAX TEMP:  34;

ALLIANCE       CLOUDY    30  27  88 N15       29.95R WCI  19
6HR MIN TEMP:  29; 6HR MAX TEMP:  31;

CHADRON        CLOUDY    33  30  88 N6        29.99R WCI  28
6HR MIN TEMP:  32; 6HR MAX TEMP:  33; 6HR PCP: TRACE;

KIMBALL        CLOUDY    32  31  97 N6        29.95S WCI  26
SIDNEY         CLEAR     26  23  88 NW9       29.96R WCI  17
6HR MIN TEMP:  23; 6HR MAX TEMP:  32;

$$

NEZ057>060-069>072-079>082-281300-
SOUTHWEST NEBRASKA

CITY           SKY/WX    TMP DP  RH WIND       PRES   REMARKS
NORTH PLATTE   CLEAR     31  28  89 NW10      29.95R WCI  22
6HR MIN TEMP:  31; 6HR MAX TEMP:  33;

IMPERIAL       CLEAR     31  28  89 NW8       29.95R WCI  23
6HR MIN TEMP:  31; 6HR MAX TEMP:  35;

LEXINGTON      CLOUDY    36  32  85 N18       29.92R WCI  26
MCCOOK         CLEAR     31  28  89 NW9       29.95R WCI  23
6HR MIN TEMP:  31; 6HR MAX TEMP:  36;

OGALLALA       CLOUDY    33  29  86 NW12      29.96R WCI  25
$$

NEZ005>010-023>029-035>040-094-281300-
NORTH CENTRAL NEBRASKA

CITY           SKY/WX    TMP DP  RH WIND       PRES   REMARKS
VALENTINE      CLOUDY    33  32  96 NW16      29.94R WCI  23
6HR MIN TEMP:  33; 6HR MAX TEMP:  34;

AINSWORTH      CLOUDY    35  34  99 NW14      29.92R FOG     WCI  25
BROKEN BOW     MIX PCPN  35  33  92 NW16      29.91R WCI  25
6HR MIN TEMP:  35; 6HR MAX TEMP:  36; 6HR PCP:  0.02;

O`NEILL        CLOUDY    41  40  95 N12       29.88R FOG
ORD            CLOUDY    39  38  96 NW15      29.87R WCI  31
6HR MIN TEMP:  39; 6HR MAX TEMP:  40;

THEDFORD       CLOUDY    34  33  94 NW12      29.94R WCI  26
$$

NEZ041-046>049-061>064-073>077-083>087-281300-
SOUTH CENTRAL NEBRASKA

CITY           SKY/WX    TMP DP  RH WIND       PRES   REMARKS
GRAND ISLAND   CLOUDY    40  38  93 NW16      29.88R WCI  31
6HR MIN TEMP:  40; 6HR MAX TEMP:  41;

AURORA         CLOUDY    41  40  97 NW16      29.86R FOG
HASTINGS       MOCLDY    38  36  92 NW21      29.87S WCI  28
6HR MIN TEMP:  38; 6HR MAX TEMP:  40;

HEBRON         CLOUDY    42  38  87 NW17      29.86R
HOLDREGE       CLEAR     35  32  89 N14G23    29.88S WCI  26
KEARNEY *      MOCLDY    37  34  87 NW15G21   29.90R WCI  28
YORK           CLOUDY    45  41  87 NW12G17   29.85R
$$

NEZ011>018-030>034-042>045-281300-
NORTHEAST NEBRASKA

CITY           SKY/WX    TMP DP  RH WIND       PRES   REMARKS
NORFOLK        LGT RAIN  42  39  89 N14       29.83R
6HR MIN TEMP:  41; 6HR MAX TEMP:  44; 6HR PCP:  0.04;

ALBION         CLOUDY    42  40  94 N9        29.85R
BLAIR          CLOUDY    45  44  97 NW14G21   29.77R FOG
COLUMBUS *     CLOUDY    43  34  70 NW12      29.84R
FREMONT        CLOUDY    43  43 100 NW15      29.81R FOG
TEKAMAH        CLOUDY    45  43  93 NW13      29.79R
6HR MIN TEMP:  45; 6HR MAX TEMP:  48; 6HR PCP:  0.02;

WAYNE          CLOUDY    42  41  95 N9        29.83R
$$

NEZ050>053-065>068-078-088>093-281300-
SOUTHEAST NEBRASKA

CITY           SKY/WX    TMP DP  RH WIND       PRES   REMARKS
LINCOLN        CLOUDY    47  42  83 NW16      29.83R
6HR MIN TEMP:  47; 6HR MAX TEMP:  50; 6HR PCP: TRACE;

OMAHA EPPLEY   CLOUDY    47  45  93 NW14G20   29.77R
6HR MIN TEMP:  46; 6HR MAX TEMP:  48; 6HR PCP:  0.04;

BEATRICE       CLOUDY    45  43  93 NW14      29.83R
FALLS CITY     CLOUDY    49  45  86 W14       29.80R
6HR MIN TEMP:  47; 6HR MAX TEMP:  49;

NEBRASKA CITY  CLOUDY    47  46  97 NW17      29.79R
PLATTSMOUTH    CLOUDY    46  45  97 W17       29.78R
$$

NEZ044-045-051>053-067-281300-
OMAHA AREA

CITY           SKY/WX    TMP DP  RH WIND       PRES   REMARKS
OMAHA EPPLEY   CLOUDY    47  45  93 NW14G20   29.77R
6HR MIN TEMP:  46; 6HR MAX TEMP:  48; 6HR PCP:  0.04;

BLAIR          CLOUDY    45  44  97 NW14G21   29.77R FOG
FREMONT        CLOUDY    43  43 100 NW15      29.81R FOG
MILLARD        CLOUDY    46  45  93 NW13      29.78R FOG
OFFUTT AFB     CLOUDY    48  48 100 NW13      29.77R
PLATTSMOUTH    CLOUDY    46  45  97 W17       29.78R
WAHOO          CLOUDY    45  43  93 NW16      29.81R
$$



USA.gov is the U.S. government's official web portal to all federal, state and local government web resources and services.